QPF
0.00 0.00 0.00 0.00 0.00 0.00 0.00 0.00 0.00 0.02 0.03 0.03 0.00 0.00 0.00 0.00 0.00 0.00 0.00 0.00 0.00 0.00
0.00 0.00 0.00 0.00 0.00 0.00 0.00 0.00 0.00 0.00 0.02 0.04 0.04 0.00 0.00 0.00 0.00 0.00 0.00 0.00 0.00 0.00
0.00 0.00 0.00 0.00 0.00 0.00 0.00 0.00 0.03 0.05 0.06 0.05 0.08 0.04 0.00 0.00 0.00 0.00 0.00 0.00 0.00 0.00
0.00 0.00 0.00 0.00 0.00 0.00 0.00 0.00 0.02 0.10 0.08 0.06 0.04 0.03 0.03 0.00 0.00 0.00 0.00 0.00 0.00 0.00
0.00 0.00 0.00 0.00 0.00 0.00 0.00 0.00 0.00 0.00 0.00 0.01 0.01 0.01 0.15 0.05 0.05 0.12 0.07 0.00 0.00 0.00
0.00 0.00 0.00 0.00 0.00 0.00 0.00 0.00 0.00 0.00 0.00 0.00 0.00 0.00 0.03 0.03 0.08 0.06 0.03 0.03 0.00 0.00
0.00 0.00 0.00 0.00 0.00 0.00 0.00 0.00 0.00 0.00 0.00 0.00 0.00 0.00 0.00 0.00 0.04 0.02 0.03 0.01 0.00 0.00
0.00 0.00 0.00 0.00 0.00 0.00 0.00 0.00 0.00 0.00 0.00 0.00 0.00 0.00 0.00 0.01 0.01 0.05 0.01 0.00 0.00 0.00
0.00 0.00 0.00 0.00 0.00 0.00 0.00 0.00 0.00 0.00 0.00 0.00 0.00 0.00 0.00 0.00 0.00 0.01 0.04 0.02 0.03 0.01
0.00 0.00 0.01 0.03 0.02 0.00 0.00 0.00 0.00 0.00 0.00 0.00 0.00 0.00 0.00 0.01 0.00 0.00 0.00 0.00 0.01 0.01
0.00 0.00 0.02 0.03 0.02 0.00 0.00 0.00 0.00 0.00 0.00 0.00 0.00 0.00 0.00 0.02 0.01 0.00 0.00 0.00 0.01 0.02
0.00 0.00 0.00 0.00 0.00 0.00 0.00 0.00 0.00 0.00 0.00 0.00 0.00 0.00 0.00 0.00 0.00 0.00 0.00 0.00 0.03 0.10
0.00 0.00 0.00 0.00 0.00 0.00 0.00 0.00 0.00 0.00 0.00 0.00 0.00 0.00 0.00 0.00 0.00 0.00 0.00 0.00 0.02 0.04
0.00 0.00 0.00 0.00 0.00 0.00 0.00 0.00 0.00 0.00 0.00 0.00 0.00 0.00 0.00 0.00 0.00 0.00 0.00 0.00 0.00 0.00
MSLP
1016.04 1016.15 1016.34 1016.42 1016.19 1016.08 1015.88 1015.90 1016.25 1016.57 1016.80 1017.11 1017.40 1017.67 1017.92 1018.04 1018.18 1018.17 1018.40 1018.47 1018.50 1017.99
1015.46 1015.65 1015.55 1015.92 1016.16 1016.09 1016.17 1015.93 1016.20 1016.27 1016.64 1016.75 1017.00 1017.46 1017.60 1017.76 1018.05 1018.15 1018.32 1018.07 1018.23 1018.33
1014.78 1015.19 1015.37 1015.69 1015.95 1015.82 1015.86 1016.26 1016.33 1016.36 1016.56 1016.70 1016.85 1017.13 1017.49 1017.39 1017.60 1017.89 1017.82 1017.70 1017.85 1018.06
1014.15 1014.52 1014.91 1015.09 1015.46 1015.74 1015.86 1016.07 1016.24 1016.40 1016.42 1016.54 1016.75 1016.85 1016.97 1017.27 1017.28 1017.56 1017.71 1017.65 1017.59 1017.84
1013.71 1014.09 1014.17 1014.57 1014.93 1015.26 1015.47 1015.67 1015.88 1015.98 1016.07 1016.20 1016.24 1016.38 1016.72 1016.75 1016.72 1017.10 1017.30 1017.19 1017.30 1017.45
1012.86 1013.33 1013.56 1013.64 1014.07 1014.47 1014.93 1015.24 1015.33 1015.53 1015.68 1015.76 1015.77 1015.86 1016.15 1016.23 1016.20 1016.19 1016.40 1016.42 1016.45 1016.61
1012.42 1012.77 1012.87 1013.10 1013.54 1013.77 1014.28 1014.60 1014.77 1014.97 1015.17 1015.29 1015.32 1015.35 1015.47 1015.50 1015.69 1015.86 1015.66 1015.64 1015.84 1015.92
1012.36 1012.56 1012.86 1013.05 1013.47 1013.70 1013.91 1014.15 1014.26 1014.30 1014.40 1014.58 1014.51 1014.35 1014.58 1014.73 1014.79 1014.94 1015.12 1014.93 1014.94 1015.04
1012.62 1012.88 1012.96 1013.16 1013.40 1013.47 1013.49 1013.37 1013.72 1013.71 1013.73 1014.04 1014.04 1014.03 1014.14 1014.32 1013.99 1014.05 1014.08 1014.20 1014.17 1014.25
1012.60 1012.99 1013.27 1013.75 1013.88 1014.10 1013.92 1014.28 1013.88 1013.91 1013.65 1013.49 1013.68 1013.91 1014.24 1014.51 1014.48 1013.97 1013.63 1013.54 1013.44 1013.54
1013.25 1013.53 1014.06 1014.10 1014.25 1014.05 1014.39 1014.13 1013.82 1013.64 1013.73 1013.86 1013.76 1014.30 1014.68 1014.55 1014.61 1013.97 1013.51 1013.19 1012.96 1012.97
1013.32 1013.52 1013.79 1013.91 1013.96 1014.23 1014.12 1013.74 1013.62 1013.54 1013.50 1013.49 1013.63 1014.34 1014.54 1014.87 1014.00 1013.09 1013.07 1012.89 1012.84 1012.73
1013.58 1013.66 1013.71 1013.74 1013.82 1013.91 1014.08 1013.87 1013.59 1013.39 1013.51 1013.66 1013.88 1013.97 1014.43 1014.59 1013.12 1012.50 1012.19 1012.38 1012.91 1013.25
1013.69 1013.74 1013.80 1013.89 1013.91 1013.86 1013.80 1013.59 1013.36 1013.19 1013.11 1013.02 1013.07 1013.23 1013.58 1013.55 1013.08 1012.48 1012.14 1012.65 1012.63 1012.79
Thickness
5809 5808 5806 5805 5806 5806 5807 5808 5805 5801 5800 5798 5795 5792 5788 5788 5788 5788 5786 5785 5784 5787
5812 5811 5812 5809 5807 5807 5806 5808 5806 5805 5803 5800 5798 5793 5791 5791 5788 5787 5785 5787 5784 5781
5816 5814 5812 5810 5807 5808 5807 5803 5803 5803 5802 5801 5799 5796 5794 5794 5792 5788 5788 5788 5785 5782
5818 5816 5813 5811 5808 5806 5806 5802 5800 5799 5800 5800 5797 5798 5797 5794 5794 5789 5787 5787 5786 5783
5818 5815 5814 5810 5809 5807 5804 5803 5800 5799 5799 5799 5799 5798 5793 5794 5795 5789 5786 5787 5786 5783
5819 5816 5814 5814 5811 5807 5803 5801 5800 5798 5797 5797 5798 5799 5796 5795 5796 5794 5790 5790 5789 5786
5821 5818 5818 5817 5812 5809 5804 5800 5800 5798 5796 5795 5796 5797 5796 5796 5793 5792 5793 5794 5791 5788
5819 5819 5816 5814 5809 5807 5805 5802 5801 5800 5800 5796 5795 5798 5795 5794 5792 5790 5788 5792 5793 5791
5811 5810 5810 5808 5805 5803 5802 5803 5800 5798 5798 5796 5795 5792 5790 5790 5793 5792 5789 5787 5791 5791
5804 5800 5798 5795 5793 5790 5789 5787 5789 5786 5790 5791 5790 5785 5780 5778 5779 5784 5785 5784 5785 5786
5791 5788 5784 5784 5780 5780 5777 5779 5780 5780 5780 5780 5778 5771 5768 5767 5767 5774 5776 5777 5777 5779
5783 5781 5778 5775 5775 5773 5769 5772 5772 5773 5772 5772 5770 5761 5759 5756 5763 5771 5767 5767 5768 5771
5776 5773 5770 5768 5766 5765 5763 5763 5765 5764 5763 5762 5757 5755 5751 5750 5763 5766 5766 5766 5759 5755
5768 5765 5762 5759 5758 5757 5754 5755 5755 5755 5755 5755 5756 5754 5749 5749 5754 5758 5760 5754 5755 5753